Flag for USA

Past Weather in Boone, North Carolina, USA — Yesterday and Last 2 Weeks

Currently: 28 °F. Light snow. Cloudy. (Weather station: Boone - Watauga County Hospital Heliport, USA). See more current weather

Past Weather in Boone — Graph

°F

Boone Temperature Yesterday

Maximum temperature yesterday: 36 °F (at 4:35 pm)
Minimum temperature yesterday: 24 °F (at 4:35 am)
Average temperature yesterday: 31 °F

High & Low Weather Summary for the Past Weeks

 TemperatureHumidityPressure
High59 °F (Jan 2, 2:35 pm)100% (Jan 1, 12:15 pm)30.26 "Hg (Jan 1, 12:15 pm)
Low11 °F (Jan 10, 7:35 am)10% (Jan 13, 9:55 am)29.55 "Hg (Jan 16, 4:35 am)
Average33 °F81%29.99 "Hg
* Reported Jan 1 12:15 pm — Jan 16 12:15 pm, Boone. Weather by CustomWeather, © 2021

Note: Actual official high and low records may vary slightly from our data, if they occured in-between our weather recording intervals... More about our weather records

Boone Weather History for the Previous 24 Hours

Scroll right to see more
 ConditionsComfort  
Time TempWeatherWind HumidityBarometerVisibility
12:15 pm
Sat, Jan 16
29 °FLight snow. Cloudy.20 mph72%29.57 "Hg3 mi
11:55 am28 °FLight snow. Cloudy.13 mph74%29.58 "Hg3 mi
11:35 am29 °FLight snow. Cloudy.15 mph69%29.58 "Hg10 mi
10:55 am29 °FLight snow. Cloudy.21 mph74%29.58 "Hg7 mi
10:35 am28 °FLight snow. Cloudy.23 mph77%29.57 "Hg3 mi
10:15 am28 °FLight snow. Cloudy.13 mph78%29.57 "Hg4 mi
9:55 am28 °FLight snow. Cloudy.9 mph75%29.57 "Hg7 mi
9:35 am27 °FLight snow. Cloudy.17 mph75%29.57 "Hg5 mi
9:15 am27 °FLight snow. Cloudy.15 mph73%29.57 "Hg7 mi
8:55 am27 °FChilly.20 mph72%29.55 "Hg10 mi
8:35 am26 °FChilly.16 mph71%29.56 "Hg10 mi
8:15 am26 °FChilly.17 mph73%29.57 "Hg10 mi
7:55 am26 °FChilly.17 mph77%29.56 "Hg10 mi
7:35 am26 °FLight snow. Overcast.12 mph78%29.56 "Hg10 mi
7:15 am26 °FLight snow. Overcast.15 mph81%29.57 "Hg7 mi
6:55 am27 °FLight snow. Overcast.9 mph79%29.57 "Hg7 mi
6:35 am27 °FLight snow. Overcast.10 mph75%29.57 "Hg10 mi
6:15 am28 °FLight snow. Overcast.12 mph73%29.56 "Hg5 mi
5:55 am28 °FChilly.9 mph66%29.56 "Hg10 mi
5:15 am29 °FChilly.12 mph59%29.55 "Hg10 mi
4:55 am29 °FChilly.10 mph63%29.55 "Hg10 mi
4:35 am27 °FChilly.No wind81%29.55 "Hg10 mi
4:15 am26 °FChilly.No wind89%29.56 "Hg10 mi
3:55 am27 °FChilly.No wind82%29.57 "Hg10 mi
3:35 am27 °FChilly.No wind83%29.57 "Hg10 mi
3:15 am27 °FChilly.No wind83%29.57 "Hg10 mi
2:55 am28 °FChilly.No wind77%29.58 "Hg10 mi
2:35 am29 °FChilly.No wind75%29.59 "Hg10 mi
2:15 am29 °FChilly.No wind75%29.59 "Hg10 mi
1:55 am29 °FChilly.No wind74%29.59 "Hg10 mi
1:35 am29 °FChilly.No wind76%29.59 "Hg10 mi
1:15 am29 °FChilly.No wind78%29.60 "Hg10 mi
12:55 am29 °FChilly.No wind85%29.60 "Hg10 mi
12:35 am29 °FChilly.No wind94%29.61 "Hg10 mi
11:55 pm
Fri, Jan 15
29 °FChilly.No wind94%29.62 "Hg10 mi
11:35 pm30 °FChilly.No wind92%29.63 "Hg10 mi
10:55 pm29 °FChilly.No wind99%29.64 "Hg10 mi
10:35 pm30 °FChilly.No wind96%29.64 "Hg10 mi
10:15 pm30 °FChilly.No wind89%29.64 "Hg10 mi
9:55 pm31 °FChilly.No wind92%29.65 "Hg10 mi
9:35 pm31 °FChilly.No wind89%29.65 "Hg10 mi
9:15 pm30 °FChilly.No wind90%29.64 "Hg10 mi
8:55 pm31 °FChilly.No wind82%29.65 "Hg10 mi
8:35 pm31 °FChilly.No wind83%29.65 "Hg10 mi
8:15 pm30 °FChilly.No wind84%29.66 "Hg10 mi
7:55 pm32 °FPassing clouds.No wind71%29.67 "Hg10 mi
7:15 pm32 °FChilly.No wind79%29.67 "Hg10 mi
6:55 pm31 °FChilly.No wind72%29.67 "Hg10 mi
6:35 pm32 °FChilly.No wind75%29.66 "Hg10 mi
6:15 pm31 °FChilly.No wind72%29.65 "Hg10 mi
5:55 pm31 °FChilly.No wind66%29.64 "Hg10 mi
5:35 pm35 °FChilly.No wind56%29.63 "Hg10 mi
5:15 pm36 °FChilly.No wind52%29.62 "Hg10 mi
4:55 pm36 °FChilly.No wind50%29.61 "Hg10 mi
4:35 pm36 °FChilly.No wind50%29.61 "Hg10 mi
4:15 pm36 °FChilly.6 mph51%29.61 "Hg10 mi
3:55 pm36 °FChilly.7 mph56%29.61 "Hg10 mi
3:35 pm36 °FChilly.8 mph63%29.61 "Hg10 mi
3:15 pm35 °FChilly.12 mph70%29.61 "Hg10 mi
2:15 pm34 °FChilly.14 mph78%29.62 "Hg10 mi
1:55 pm33 °FLight snow. Cloudy.10 mph82%29.63 "Hg10 mi
1:15 pm33 °FDrizzle. Cloudy.12 mph86%29.63 "Hg10 mi
Weather by CustomWeather, © 2021

See weather overview